Regional Weather Roundup
Issued by NWS Green Bay, WI

Home | Current Version | Previous Version | Graphics & Text | Print | Product List | Glossary Off
Versions: 1 2 3 4 5 6 7 8 9 10 11 12 13 14 15 16 17 18 19 20 21 22 23 24 25 26 27 28 29 30 31 32 33 34 35 36 37 38 39 40 41 42 43 44 45 46 47 48 49 50

000
ASUS43 KGRB 271311
RWRGRB

NORTH-CENTRAL AND NORTHEAST WISCONSIN REGIONAL WEATHER ROUNDUP
NATIONAL WEATHER SERVICE GREEN BAY WI
800 AM CDT MON MAR 27 2017

WIZ005-009-010>012-018-019-271400-
NORTH CENTRAL WISCONSIN

CITY           SKY/WX    TMP DP  RH WIND       PRES   REMARKS
IRONWOOD       FOG       32  31  96 CALM      29.94S VSB 1/4
MANITOWISH WTR CLOUDY    31  31 100 N3        29.91S FOG
ARBOR VITAE    CLOUDY    34  33  96 NE3       29.90S FOG
EAGLE RIVER    CLOUDY    32  32 100 N5        29.91R FOG
LAND O LAKES   CLOUDY    32  32 100 N6        29.92F FOG
RHINELANDER    CLOUDY    34  34 100 CALM      29.92R
PHILLIPS       CLOUDY    32  32 100 N5        29.92R
ANTIGO         CLOUDY    33  33  99 N6        29.92R
TOMAHAWK       CLOUDY    32  32  99 CALM      29.92R
MERRILL        CLOUDY    34  34 100 CALM      29.93R
$$

WIZ013-073-271400-
NORTHEAST WISCONSIN

CITY           SKY/WX    TMP DP  RH WIND       PRES   REMARKS
IRON MOUNTAIN  CLOUDY    34  31  88 NW6       29.89F FOG
MARINETTE        N/A    N/A N/A N/A MISG        N/A
OCONTO         CLOUDY    37  35  93 N5        29.92S
$$

WIZ017-030-035>037-045-271400-
CENTRAL WISCONSIN

CITY           SKY/WX    TMP DP  RH WIND       PRES   REMARKS
MEDFORD        CLOUDY    33  32  96 NW5       29.92R
WAUSAU         CLOUDY    35  33  92 N3        29.91R
MOSINEE        PTSUNNY   36  36 100 NW5       29.93R
MARSHFIELD     CLOUDY    36  34  92 N3        29.91F
WISC RAPIDS    CLOUDY    39  39 100 N5        29.94R
STEVENS POINT  CLOUDY    36  36 100 NW3       29.94R
WAUPACA        CLOUDY    41  40  97 CALM      29.94R FOG
SHAWANO        CLOUDY    39  37  93 N5        29.94R
CLINTONVILLE   CLOUDY    37  37 100 N5        29.93R
WAUTOMA        CLOUDY    40  39  97 CALM      29.95R FOG
$$

WIZ038-039-048-051-271400-
FOX VALLEY

CITY           SKY/WX    TMP DP  RH WIND       PRES   REMARKS
NWS GREEN BAY  CLOUDY    39  39 100 CALM      29.93R
APPLETON       CLOUDY    37  37 100 VRB3      29.91R FOG
OSHKOSH        CLOUDY    39  38  96 W5        29.93R
FOND DU LAC    CLOUDY    40  37  89 NW3       29.93R FOG
$$

WIZ022-050-052-271400-
EAST CENTRAL WISCONSIN

CITY           SKY/WX    TMP DP  RH WIND       PRES   REMARKS
EPHRAIM        CLOUDY    34  34 100 N5        29.91S
WASHINGTON ISL CLOUDY    34  33  94 N7        29.91F
STURGEON BAY   LGT RAIN  35  35 100 N8        29.90S VSB 1/2
MANITOWOC      CLOUDY    39  37  92 NW5       29.94R
SHEBOYGAN      CLOUDY    39  36  89 CALM      29.93R
$$

LMZ563-521-522-541>543-271400-
LAKESHORE

STATION/POSITION TIME  TEMP    WIND        PRES    VSBY  WAVE
                       AIR SEA DIR/SP/G                  HT/PER
                 (UTC) (F)     (DEG/KT/KT) (MB)    (MI)  (FT/S)
SHEBOYGAN LKSHOR 1300   38        CALM     1014.0R
KEWAUNEE LKSHORE 1248   38      10/  3/  6 1012.5F
NORTHPORT PIER   1240   34     300/  7/ 12 1013.2S
CHAMBERS ISLAND  1240   34     310/  4/  5 1012.9F
MENOMINEE LKSHOR 1248   35     320/  5/  7 1012.9R
$$




USA.gov is the U.S. government's official web portal to all federal, state and local government web resources and services.